Regional Weather Roundup
Issued by NWS Upton, NY

Current Version | Previous Version | Text Only | Print | Product List | Glossary On
Versions: 1 2 3 4 5 6 7 8 9 10 11 12 13 14 15 16 17 18 19 20 21 22 23 24 25 26 27 28 29 30 31 32 33 34 35 36 37 38 39 40 41 42 43 44 45 46 47 48 49 50
000 ASUS41 KOKX 041005 RWROKX REGIONAL WEATHER ROUNDUP NATIONAL WEATHER SERVICE NEW YORK NY 500 AM EST WED MAR 04 2015 NOTE: "FAIR" INDICATES FEW OR NO CLOUDS BELOW 12,000 FEET WITH NO SIGNIFICANT WEATHER AND/OR OBSTRUCTIONS TO VISIBILITY. NYZ071-072-176-178-NJZ106-104-041100- NEW YORK CITY METRO AREA CITY SKY/WX TMP DP RH WIND PRES REMARKS CENTRAL PARK CLOUDY 36 31 82 W3 29.80R LAGUARDIA APRT CLOUDY 37 32 82 W8 29.79R WCI 31 KENNEDY INTL CLOUDY 36 32 85 W7 29.80R WCI 30 NEWARK/LIBERTY CLOUDY 36 33 89 W6 29.79R WCI 31 BRNX BOT. GARD N/A 36 32 87 W2 29.78S TETERBORO LGT RAIN 35 31 85 SW5 29.78R WCI 31 $$ NYZ177-179-078>081-041100- LONG ISLAND NEW YORK CITY SKY/WX TMP DP RH WIND PRES REMARKS FARMINGDALE CLOUDY 36 33 89 W8 29.78R WCI 30 ISLIP CLOUDY 36 33 89 W9 29.77R WCI 29 SHIRLEY CLOUDY 36 34 92 W8 29.78R WCI 30 WESTHAMPTON MIX PCPN N/A N/A N/A W8 29.78R MONTAUK POINT N/A 37 35 92 SW9 29.75S WCI 30 $$ NYZ052-065-067-041100- HUDSON VALLEY CITY SKY/WX TMP DP RH WIND PRES REMARKS WHITE PLAINS LGT RAIN 34 32 92 W7 29.75R FOG WCI 28 NEWBURGH LGT RAIN 34 32 93 SW8 29.74R WCI 27 MONTGOMERY CLOUDY 34 31 88 SW7 29.73R WCI 28 POUGHKEEPSIE CLOUDY 35 31 85 S5 29.74R WCI 31 ALBANY CLOUDY 33 27 78 S8 29.70R WCI 26 $$ NJZ001-105-106-008-010-013-015-019>022-104-041100- NEW JERSEY CITY SKY/WX TMP DP RH WIND PRES REMARKS NEWARK/LIBERTY CLOUDY 36 33 89 W6 29.79R WCI 31 TETERBORO LGT RAIN 35 31 85 SW5 29.78R WCI 31 CALDWELL LGT RAIN 34 31 88 CALM 29.79R FOG MORRISTOWN MIX PCPN 36 32 87 CALM 29.79R SOMERVILLE LGT RAIN 34 32 92 CALM 29.77R FOG SUSSEX LGT RAIN 33 30 88 SW5 29.76R FOG WCI 29 ANDOVER N/A 32 31 96 CALM 29.78R TRENTON FRZ RAIN 35 32 88 W5 29.78R WCI 31 MILLVILLE CLOUDY 40 38 93 W7 29.82R ATLANTIC CITY NOT AVBL WRIGHTSTOWN CLOUDY 36 36 99 SW9 29.76F WCI 29 TOMS RIVER CLOUDY 37 37 100 CALM 29.78R BELMAR CLOUDY 37 32 81 SW13G18 29.77R WCI 29 $$ PAZ047>061-062-071-041100- EASTERN PENNSYLVANIA CITY SKY/WX TMP DP RH WIND PRES REMARKS PHILADELPHIA CLOUDY 35 33 92 SW10 29.81F FOG WCI 27 ALLENTOWN SLEET 34 30 85 SW8 29.79R FOG WCI 27 SCRANTON MIX PCPN 32 28 85 SW5 29.77R FOG WCI 27 $$ CTZ002-004>006-009-010-012-RIZ004-006-007-MAZ004-011-015-041100- SOUTHERN NEW ENGLAND IN CT CITY SKY/WX TMP DP RH WIND PRES REMARKS BRADLEY INTL CLOUDY 36 32 85 S9 29.69S WCI 29 HARTFORD CLOUDY 35 32 88 S9 29.71F WCI 28 DANBURY LGT RAIN 33 30 88 W8 29.75R WCI 26 WTRBRY/OXFORD CLOUDY 34 27 75 W8 29.72R WCI 27 BRIDGEPORT LGT RAIN 33 32 96 SW9 29.75F WCI 25 MERIDEN LGT RAIN 34 32 92 S6 29.73S WCI 29 NEW HAVEN MIX PCPN 34 32 92 SW8 29.75R WCI 27 CHESTER CLOUDY 34 34 100 SW6 29.72F FOG WCI 29 GROTON CLOUDY 34 34 100 W14 29.74S WCI 25 WILLIMANTIC CLOUDY 36 33 89 SW5 29.71S WCI 32 IN RI CITY SKY/WX TMP DP RH WIND PRES REMARKS PROVIDENCE CLOUDY 37 34 89 SW10 29.69F WCI 30 BLOCK ISLAND CLOUDY 36 30 80 SW17 29.73S WCI 25 WESTERLY CLOUDY 35 34 96 SW10 29.73F WCI 27 IN MA CITY SKY/WX TMP DP RH WIND PRES REMARKS BOSTON CLOUDY 38 34 85 SW14 29.65R WCI 30 WORCESTER CLOUDY 34 32 92 W22G31 29.60S WCI 22 WESTFIELD MOCLDY 36 32 85 S10 29.67R WCI 28 PROVINCETOWN CLOUDY 36 34 93 S12 29.66F WCI 27 NANTUCKET LGT RAIN 38 36 92 W21 29.73S WCI 28 $$ ANZ330-335-338-340-345-350-353-355-041100- COASTAL MARINE OBSERVATIONS STATION/POSITION TIME SKY/WX TEMP WIND PRES VSBY WAVE AIR SEA DIR/SP/G HT/PER (UTC) (F) (DEG/KT/KT) (MB) (MI) (FT/S) NY HARB ENTRANCE 1000 38 38 240/ 8/ 10 1008.3 4/ 6 4S FIRE IS 1000 32 N/A 5/ 7 20S FIRE ISLAND 0900 36 1008.9 5/ 6 23SW MTP 1000 N/A 7/ 7 HUDSON CANYON NOT AVBL EXECUTION ROCKS NOT AVBL WESTERN LI SOUND NOT AVBL CENTRAL LI SOUND NOT AVBL EASTERN LI SOUND NOT AVBL ROBBINS REEF 1000 36 290/ 9/ 12 1007.2 $$ >>>>>>>>>>>>>>>>>>>>>>>>>>>> KEY <<<<<<<<<<<<<<<<<<<<<<<<<<< > < > SKY/WX - SKY CONDITION/PRESENT WEATHER < > TMP - TEMPERATURE IN FAHRENHEIT < > DP - DEWPOINT IN FAHRENHEIT < > RH - RELATIVE HUMIDITY IN PERCENT < > WIND - DIRECTION AND SPEED IN MPH < > PRES - MEAN SEA LEVEL PRESSURE IN INCHES OF HG < > WCI - WIND CHILL INDEX < > VSB - VISIBILITY IN MILES < > HX - HEAT INDEX < > TC - TEMPERATURE IN CELSIUS < > VRB - VARIABLE WIND DIRECTION < > < >>>>>>>>>>>>>>>>>>>>>>>>>>>> KEY <<<<<<<<<<<<<<<<<<<<<<<<<<<

USA.gov is the U.S. government's official web portal to all federal, state and local government web resources and services.